This is the latest recevied weather packets stored in our database for station/object KTPA. If no packets are shown the sender has not sent any weather packets the latest 10 day(s).
| Time | Temp. | Humidity | Pressure | Rain* | Wind** | Luminosity | Snow |
|---|---|---|---|---|---|---|---|
| 1787951617 | 26.67° C | 78% | 1015.9 hPa | - | - | - | - |
| 1787951024 | 26.67° C | 78% | 1015.9 hPa | - | - | - | - |
| 1787950418 | 25° C | 88% | 1016.6 hPa | - | - | - | - |
| 1787949815 | 25° C | 88% | 1017.9 hPa | - | - | - | - |
| 1787949218 | 25° C | 88% | 1017.9 hPa | - | - | - | - |
| 1787948615 | 25° C | 88% | 1017.9 hPa | - | - | - | - |
| 1787948019 | 23.89° C | 88% | 1017.9 hPa | - | - | - | - |
| 1787947416 | 23.89° C | 94% | 1017.9 hPa | - | - | - | - |
| 1787946817 | 23.89° C | 94% | 1017.3 hPa | - | - | - | - |
| 1787946219 | 25.56° C | 83% | 1017.3 hPa | - | - | - | - |
| 1787945616 | 30.56° C | 66% | 1016.9 hPa | - | - | - | - |
| 1787945018 | 30.56° C | 66% | 1016.9 hPa | - | - | - | - |
| 1787944418 | 30.56° C | 66% | 1016.9 hPa | - | - | - | - |
| 1787943818 | 30.56° C | 66% | 1016.9 hPa | - | - | - | - |
| 1787943220 | 30.56° C | 62% | 1017.9 hPa | - | - | - | - |
| 1787942617 | 30.56° C | 62% | 1017.9 hPa | - | - | - | - |
| 1787942018 | 30.56° C | 62% | 1017.9 hPa | - | - | - | - |
| 1787941418 | 30.56° C | 62% | 1017.9 hPa | - | - | - | - |
| 1787940818 | 30.56° C | 62% | 1017.9 hPa | - | - | - | - |
| 1787940217 | 30.56° C | 62% | 1017.9 hPa | - | - | - | - |
| 1787939620 | 30° C | 66% | 1018.6 hPa | - | - | - | - |
| 1787939018 | 30° C | 66% | 1018.6 hPa | - | - | - | - |
| 1787938417 | 30° C | 66% | 1018.6 hPa | - | - | - | - |
| 1787937826 | 30° C | 66% | 1018.6 hPa | - | - | - | - |
| 1787937218 | 30° C | 66% | 1018.6 hPa | - | - | - | - |
* Rain since midnight (hover to see other rain measurements)
** Current wind speed in m/s (hover to see current wind gust speed)